Location: Boiro
(42.6475°N, 8.8834°W)
Time: 23:48:11
(UTC+01:00)

Altair - Pass Details

Date: 04 December 2021
Orbit: 1501 x 1683 km, 47.2° (Epoch: 18 January)

Event Time Altitude Azimuth Distance (km) Brightness Sun altitude
Rises 00:59:13 0° 292° (WNW) 4,641 - -68.9°
Reaches altitude 10° 01:02:57 10° 280° (W) 3,653 - -69.0°
Maximum altitude 01:09:47 24° 231° (SW) 2,708 - -69.3°
Drops below altitude 10° 01:16:41 10° 181° (S) 3,675 - -69.5°
Sets 01:20:28 0° 169° (S) 4,676 - -69.6°
